GFSSE_prec_cthk_078.txt.gz
RH
31 30 29 25 25 29 31 35 33 30 31 36 44 56 52 64 57 57 53 47 47 43 39 40 42 43 33 33 36 34 37 42 39 45 42 44 48 45 46 47 44 49 49
28 26 26 26 26 28 31 32 32 27 31 37 46 56 62 59 68 58 61 55 54 52 45 34 35 31 34 42 44 47 44 44 35 43 48 46 44 47 44 44 46 49 53
29 27 27 29 30 31 32 34 33 31 33 39 48 53 60 58 68 60 63 59 56 52 53 41 32 33 44 46 51 55 37 33 34 39 53 46 45 46 48 48 47 48 44
25 22 22 23 26 30 34 34 34 37 36 39 42 50 54 53 52 56 58 57 51 52 48 41 35 34 40 50 39 37 30 31 33 43 47 46 46 52 49 48 46 41 38
24 21 21 21 21 24 29 31 36 37 40 42 44 50 58 57 60 60 54 58 54 54 45 36 35 32 42 36 30 30 31 30 36 36 40 43 48 54 46 45 40 38 35
27 24 24 21 24 24 28 30 35 38 43 45 47 54 63 54 58 59 55 50 52 53 44 41 35 38 38 33 31 32 28 31 35 38 40 47 44 44 41 39 35 31 28
27 26 24 21 24 27 31 36 37 42 47 51 55 49 76 56 63 61 56 51 43 45 43 44 40 42 40 33 34 35 31 34 37 38 44 41 39 38 38 35 25 20 17
27 25 22 20 23 27 32 36 41 50 54 60 67 64 70 87 76 88 56 50 44 35 39 50 45 40 37 36 36 35 34 36 39 41 41 36 36 37 34 25 19 17 16
28 26 25 24 23 24 28 32 40 46 55 67 73 94 91 96 83 89 79 63 50 45 45 50 44 42 41 38 32 38 35 39 35 46 37 37 36 32 24 20 19 16 15
30 29 26 26 24 21 27 32 40 50 64 63 69 81 79 85 95 90 87 78 76 65 48 48 44 44 39 45 45 37 35 38 44 41 39 36 30 26 23 22 19 19 16
30 30 28 26 24 24 31 37 45 51 60 64 72 79 84 81 94 93 95 92 83 84 54 43 47 40 39 50 41 37 41 40 41 42 36 30 27 28 28 25 20 19 14
30 30 29 28 28 26 34 42 55 56 62 66 66 76 80 88 86 87 95 95 97 90 60 44 43 40 40 43 43 46 49 51 56 33 28 29 31 30 29 25 23 22 19
30 30 30 30 31 28 37 53 61 65 67 71 69 71 83 88 84 86 96 95 97 91 60 46 42 42 44 40 44 44 49 52 35 33 29 31 33 30 30 30 25 25 21
32 32 31 32 32 29 38 53 58 68 69 71 68 70 75 80 89 91 92 95 97 86 60 51 51 48 48 48 47 50 56 44 34 31 29 35 35 32 32 30 27 25 20
30 33 33 33 32 28 34 45 49 55 64 70 69 64 66 75 74 82 86 91 93 86 62 55 53 52 51 52 55 56 44 39 39 33 31 32 37 36 35 33 29 23 19
32 34 32 34 31 26 32 40 46 52 54 57 59 68 73 77 80 82 85 91 92 86 65 65 62 52 50 53 56 53 54 59 41 35 34 34 35 38 39 37 34 23 20
34 37 33 35 30 25 28 33 42 48 53 60 63 71 80 85 90 89 86 94 97 84 64 65 63 57 56 60 61 56 62 49 47 47 40 37 38 38 39 39 34 27 24
34 39 38 36 30 25 26 31 37 43 48 53 58 63 85 96 93 96 94 94 96 89 64 62 59 58 57 63 64 66 52 55 59 59 45 40 38 39 37 39 35 28 29
36 39 42 37 29 25 25 30 35 37 41 46 53 58 75 97 98 98 98 96 94 83 68 70 60 55 58 65 64 56 55 58 67 62 51 45 43 41 39 35 33 32 34
37 41 44 38 31 26 26 28 31 36 41 48 51 55 79 97 98 98 97 97 92 82 68 66 72 69 61 59 63 63 59 63 75 71 58 51 48 44 42 38 34 35 39
41 42 46 39 32 27 26 27 31 37 45 55 61 70 89 97 98 99 97 93 91 73 57 63 69 58 60 62 68 70 67 67 67 73 69 65 53 48 46 46 44 46 47
41 43 44 40 32 26 25 29 32 39 50 60 70 71 90 99 99 97 98 89 89 69 60 59 54 59 68 68 71 74 74 68 63 64 64 66 67 61 56 58 57 58 57
41 43 41 41 33 26 26 30 32 41 56 69 75 76 95 98 99 99 98 96 86 57 51 53 57 62 67 73 74 72 68 66 63 61 61 60 64 70 76 72 68 61 60
43 45 42 41 34 27 25 29 33 44 58 71 77 74 81 90 93 91 91 89 82 66 65 62 67 70 70 74 78 75 72 71 69 65 70 68 73 69 72 76 70 66 66
45 46 43 39 35 28 24 28 32 44 56 67 69 73 78 80 83 88 91 89 86 72 68 67 70 73 76 78 79 82 80 76 72 64 66 73 72 74 83 78 73 68 70
48 48 43 41 37 28 23 28 34 44 50 62 68 70 73 77 81 85 94 94 90 79 79 76 72 71 78 82 85 80 78 76 72 69 74 71 72 76 80 80 77 77 78

GFSSE_prec_cthk_084.txt.gz
RH
21 21 20 21 20 21 22 24 30 31 30 32 34 35 40 40 46 52 50 48 49 46 50 48 52 52 53 52 54 52 46 41 40 42 43 50 54 54 49 54 55 52 54
19 21 21 20 20 19 20 22 27 32 31 30 34 35 39 40 48 51 52 55 51 49 45 45 44 47 51 52 51 44 39 41 38 45 48 54 53 48 47 55 51 52 59
20 19 20 20 21 21 22 25 27 31 33 32 34 37 41 44 52 52 56 57 57 50 49 47 47 46 47 47 38 37 37 36 41 49 51 59 51 43 46 48 50 61 58
19 21 22 20 19 18 19 22 25 28 32 32 35 39 45 51 52 55 60 64 62 56 56 54 50 40 36 33 36 46 41 45 42 47 68 59 45 44 44 49 60 58 53
20 21 22 20 20 19 19 20 22 26 29 32 35 39 44 51 58 63 59 60 53 60 58 63 58 41 36 39 47 57 53 38 40 50 57 51 45 55 50 58 60 55 58
22 22 23 21 19 18 20 22 24 27 30 35 37 40 46 61 70 63 64 65 65 67 64 62 67 46 42 46 49 53 48 35 38 47 57 47 44 69 55 56 55 50 50
23 23 23 21 18 18 19 21 25 28 31 37 42 50 57 65 70 64 70 78 77 76 63 64 65 58 40 40 51 42 35 32 37 51 52 47 46 62 49 46 43 38 36
24 24 23 22 20 19 20 21 24 27 32 36 46 56 56 58 70 84 86 90 83 81 71 73 66 57 42 45 46 36 33 32 39 49 54 44 46 49 46 41 38 37 31
26 26 24 24 23 22 22 22 22 26 30 38 45 58 73 80 82 85 95 93 89 89 83 78 64 54 43 43 44 39 40 35 47 49 47 42 44 46 43 36 33 24 21
27 27 26 25 25 25 24 25 22 25 31 39 46 61 70 68 72 86 91 93 92 91 90 78 70 56 48 44 51 45 38 40 48 48 48 42 44 45 40 31 23 17 16
29 27 27 26 27 28 27 25 25 26 33 47 52 58 67 68 73 84 90 90 91 87 86 83 70 58 56 48 49 45 38 47 49 51 47 42 39 40 35 26 17 16 15
34 30 31 30 31 31 30 26 28 31 38 57 60 65 68 71 77 78 94 89 88 89 88 81 72 67 67 52 52 44 45 49 43 46 41 43 42 42 32 22 18 20 17
40 34 33 35 36 36 31 27 30 30 39 53 61 67 74 75 76 79 87 86 88 91 93 90 84 75 64 65 52 49 54 43 46 46 38 44 45 45 34 26 24 24 20
42 35 33 38 38 40 34 28 27 31 39 50 56 62 73 78 84 84 78 85 85 93 96 93 87 74 71 62 55 51 52 54 47 47 49 49 46 43 30 30 27 23 20
41 40 35 39 43 41 37 30 29 30 37 46 54 63 71 77 82 81 78 89 85 89 95 95 91 76 72 66 58 49 50 53 47 54 53 48 48 35 33 32 30 28 25
39 39 36 39 45 45 43 33 30 29 34 41 51 59 64 72 79 74 77 80 89 90 98 98 94 76 65 54 54 51 47 47 45 52 53 49 38 34 35 34 31 29 23
36 38 35 39 46 49 48 38 31 27 30 36 43 52 60 63 71 76 77 86 88 92 97 99 96 76 61 54 54 49 45 39 45 49 55 57 39 37 41 37 34 33 28
35 35 37 38 45 49 51 38 30 26 27 33 36 41 48 57 66 71 79 89 89 88 97 97 96 74 60 56 57 54 49 44 47 48 54 60 49 43 43 41 37 37 33
34 37 38 38 47 49 51 40 32 24 28 29 35 40 45 52 60 63 72 88 92 89 96 93 96 76 68 61 59 57 54 54 53 61 63 65 62 41 44 39 39 39 35
33 38 39 46 48 48 51 42 35 24 28 29 34 39 49 55 60 63 66 80 92 94 96 96 94 85 70 67 64 65 64 62 64 69 65 66 55 50 53 46 41 41 38
34 36 44 46 47 49 56 46 34 27 28 32 37 42 48 53 61 68 72 78 94 97 95 96 90 86 72 67 65 66 68 65 68 72 68 65 55 61 60 54 52 50 39
36 35 43 44 47 51 56 44 33 26 29 35 40 48 55 58 63 66 72 90 95 99 98 97 87 86 75 73 66 64 67 70 71 73 71 70 60 65 68 65 54 51 49
33 36 41 44 47 51 52 43 37 27 30 35 43 56 67 70 73 77 84 98 97 97 98 98 97 88 75 71 70 64 68 69 73 76 71 67 67 68 68 73 68 65 59
31 40 41 44 49 52 48 43 39 28 31 35 49 65 76 78 86 90 94 97 99 98 97 98 99 90 75 64 62 66 67 65 74 75 67 61 60 65 60 59 54 59 55
30 36 42 46 53 49 46 46 36 29 32 41 51 65 70 76 87 95 99 98 98 99 99 98 99 92 74 68 71 68 65 70 67 73 73 72 71 69 63 58 55 56 57
27 36 45 49 54 48 47 46 33 30 33 41 51 64 71 77 78 86 94 98 99 97 99 99 97 93 74 74 66 71 64 64 68 71 73 74 71 70 68 67 66 65 68

GFSSE_prec_cthk_087.txt.gz
RH
22 18 18 18 17 18 19 21 23 26 29 31 34 35 35 36 38 42 47 43 41 43 43 45 50 57 56 53 51 55 56 55 49 43 42 43 50 53 55 55 63 59 58
19 18 19 18 18 18 19 18 21 26 29 29 30 36 38 39 41 47 47 45 47 48 46 46 49 51 52 52 52 54 52 46 43 40 43 50 55 58 53 59 64 55 62
20 17 18 17 17 17 19 20 21 25 29 30 31 34 40 44 45 50 52 51 54 54 50 50 47 46 49 52 52 50 43 41 40 45 54 57 59 55 48 56 55 61 62
21 16 17 18 17 17 17 20 22 26 29 30 30 33 37 42 45 58 60 58 59 60 55 52 51 48 47 49 47 37 38 37 42 50 61 63 60 61 47 47 53 61 58
21 20 18 17 17 16 17 18 19 22 25 26 27 31 35 42 46 56 63 68 63 66 56 58 59 58 37 35 32 40 46 47 52 56 69 74 58 59 46 49 60 64 62
24 23 19 19 18 16 15 17 19 22 26 29 29 32 37 51 63 74 79 79 64 64 59 66 67 69 41 32 41 53 51 46 49 64 70 71 53 56 60 58 66 59 57
25 25 20 20 18 15 15 16 18 22 27 29 33 36 53 65 73 76 82 79 66 75 74 85 70 75 48 43 49 57 62 56 60 59 59 69 50 65 67 56 60 53 48
28 22 21 21 20 18 16 16 19 22 26 29 36 43 56 65 68 70 76 80 87 97 93 88 80 74 59 47 49 61 49 46 52 47 69 67 57 59 62 52 47 40 37
31 23 23 22 22 21 19 20 20 22 25 29 38 43 55 65 73 82 81 80 84 85 93 92 86 78 61 47 60 60 42 50 47 59 68 63 55 46 52 47 44 38 37
32 26 24 23 23 23 22 23 25 24 26 27 33 39 48 58 68 72 75 82 84 84 93 89 91 87 71 57 61 51 44 55 56 51 61 55 46 43 46 45 39 36 29
31 31 25 25 25 25 25 25 26 26 27 27 32 42 51 60 69 75 73 78 87 86 88 88 85 86 76 67 59 50 52 59 53 51 51 43 40 38 42 45 35 26 22
36 33 32 25 27 28 30 30 29 29 27 28 35 49 55 63 72 75 76 82 89 88 87 87 88 84 76 72 62 63 55 53 58 54 48 42 36 34 36 37 31 21 18
38 39 33 32 28 29 33 39 39 35 31 35 41 55 64 67 72 79 75 86 90 88 91 91 92 86 76 75 65 67 57 50 54 50 45 39 36 38 36 36 27 20 17
43 38 35 35 30 34 41 41 41 35 32 33 36 49 62 65 68 76 75 73 75 82 87 92 93 90 82 85 65 63 58 57 57 51 39 35 39 36 37 38 29 23 20
43 40 36 37 32 38 39 38 39 37 30 31 39 48 59 72 70 78 78 85 84 84 88 92 96 94 90 87 75 67 58 54 55 57 39 37 40 40 42 46 36 26 23
36 41 37 36 36 37 38 38 39 39 27 33 38 41 58 65 72 73 82 86 81 90 88 91 96 95 92 84 82 73 55 55 54 56 47 43 43 42 45 42 32 31 30
30 38 38 36 38 38 39 42 42 40 30 31 35 36 46 56 66 69 82 77 80 85 92 95 95 98 92 89 86 83 58 53 51 52 48 44 44 43 41 34 34 34 29
28 33 40 38 38 42 45 47 48 41 33 31 32 32 42 52 55 64 72 80 84 85 95 94 98 98 96 93 89 71 58 53 49 45 48 49 45 44 44 42 37 35 33
29 34 40 39 39 43 45 50 55 44 32 30 30 29 35 41 46 53 62 71 79 90 96 88 98 95 96 93 73 60 53 51 43 41 51 52 47 48 56 47 39 37 37
31 37 43 39 39 43 49 54 54 47 33 28 26 27 34 39 43 49 57 61 67 86 94 91 93 96 94 89 77 59 54 55 51 43 47 53 56 55 59 59 42 39 39
36 40 43 37 40 46 52 49 56 51 35 27 25 27 32 38 43 49 59 67 69 81 89 95 95 97 97 89 80 64 62 59 55 52 55 57 67 61 65 59 45 41 34
35 37 40 36 41 49 48 52 58 54 38 28 26 29 34 40 46 53 60 67 72 75 86 96 96 96 94 90 83 71 67 66 64 60 56 57 68 67 65 59 56 53 53
35 36 38 37 43 50 54 55 59 52 39 29 28 31 39 50 59 61 62 65 72 83 92 99 98 98 93 94 87 73 66 65 68 64 68 68 66 65 67 58 60 66 64
34 36 39 41 45 48 54 56 59 48 39 29 30 40 49 64 70 72 73 71 72 81 98 98 99 96 93 92 91 79 63 61 64 73 71 67 67 64 65 68 67 64 66
37 38 40 41 44 50 54 58 58 46 38 33 33 41 53 59 71 80 87 88 80 94 97 97 98 97 94 91 79 86 77 71 70 70 70 69 70 71 64 62 63 61 58
41 42 43 40 48 50 56 62 56 43 35 31 35 44 54 65 71 74 90 94 94 98 98 99 98 96 97 96 82 81 66 67 72 73 74 74 71 71 68 65 61 62 61

GFSSE_prec_cthk_093.txt.gz
RH
29 22 20 17 14 14 13 13 17 19 22 24 25 25 25 28 31 34 34 33 37 37 38 38 41 44 51 61 66 71 70 74 78 74 71 65 50 52 53 55 57 59 62
23 23 20 17 13 12 13 14 16 18 21 24 27 25 26 28 31 35 38 37 40 42 43 42 42 47 56 61 60 62 65 67 68 63 60 58 51 52 53 57 59 61 62
22 23 20 16 13 13 12 13 14 15 19 26 27 25 28 30 32 38 42 43 44 45 45 46 47 52 58 57 55 56 61 61 60 57 49 47 48 51 56 61 61 63 63
24 23 21 16 14 13 13 14 15 16 19 23 25 26 28 31 34 40 48 49 50 51 55 56 55 50 50 53 56 57 57 59 58 52 45 50 52 56 60 64 61 63 57
24 23 22 18 14 13 13 13 13 15 18 24 26 27 28 31 35 40 47 53 57 58 72 74 76 61 50 51 53 55 56 54 47 49 52 60 58 63 63 60 55 53 56
25 23 20 15 14 14 13 12 12 14 16 20 26 28 29 30 34 38 47 56 65 71 81 84 78 70 60 51 46 49 52 47 49 50 58 62 61 67 66 60 50 53 62
19 19 17 16 15 14 14 12 13 13 15 19 23 26 29 31 35 41 50 59 71 75 83 83 85 82 77 63 47 43 49 51 54 57 65 70 67 70 67 61 55 56 56
19 17 16 16 16 16 15 13 14 14 16 18 22 24 27 31 37 43 53 62 71 77 84 84 83 84 83 76 57 56 55 54 54 62 75 74 72 71 64 65 61 58 56
21 20 18 18 17 17 16 15 15 15 17 19 22 24 27 31 36 44 54 62 71 79 82 84 83 79 84 82 70 72 61 64 58 60 70 71 74 73 70 63 61 54 49
21 21 20 20 19 18 18 16 16 16 17 19 20 24 26 31 36 45 50 56 66 74 81 85 80 81 81 83 76 76 66 74 71 70 73 69 70 76 74 63 59 47 40
23 22 22 21 20 20 20 18 18 18 18 19 21 23 26 28 34 41 50 58 64 71 77 80 77 81 81 82 77 77 74 66 64 65 68 72 74 77 71 51 51 42 39
30 23 24 23 22 21 20 19 20 20 19 20 22 24 26 28 33 42 51 58 65 73 79 77 71 79 87 86 84 73 82 74 67 76 60 66 78 74 69 48 43 41 38
36 27 24 25 24 23 21 20 22 22 22 22 23 24 26 29 35 43 54 62 68 79 81 82 79 85 92 85 85 79 76 80 76 75 77 63 65 65 53 42 36 37 34
36 35 28 27 24 23 23 22 25 25 24 23 24 26 27 28 34 42 55 63 71 78 81 83 85 86 91 88 88 84 75 74 79 76 68 68 58 52 38 28 30 35 29
23 33 33 35 33 25 26 25 26 27 26 26 27 27 27 30 34 44 60 79 77 80 77 82 79 85 92 93 93 89 79 76 86 79 70 48 47 41 36 29 34 31 26
22 23 31 35 38 37 30 28 28 29 28 30 31 30 29 31 33 42 57 74 81 82 81 77 82 82 92 88 94 94 86 80 80 76 57 46 46 37 32 33 35 33 30
21 20 27 38 33 38 42 30 34 33 31 33 32 33 33 32 31 40 53 69 87 82 81 85 85 83 89 91 96 95 90 88 83 75 66 49 43 34 31 32 37 38 35
21 18 23 30 35 34 43 37 38 39 34 36 35 38 34 31 29 36 48 53 67 75 79 86 90 90 91 94 96 96 95 91 89 76 61 50 41 34 34 36 38 38 37
18 17 20 27 31 35 39 42 39 40 36 38 39 42 41 33 27 32 41 48 54 67 78 87 89 90 95 92 96 97 96 95 90 75 57 48 42 36 37 41 41 37 40
19 17 20 25 29 33 36 44 44 39 38 41 41 45 46 34 25 29 36 42 49 54 72 81 88 88 89 91 99 99 98 94 89 82 60 48 45 37 38 41 41 43 42
21 19 20 23 36 34 36 34 38 38 43 43 44 50 48 35 23 26 33 40 45 48 58 67 70 74 88 94 98 99 97 96 87 83 61 47 44 40 34 38 43 46 44
24 20 22 22 32 35 36 32 32 40 48 45 48 51 53 35 25 25 32 37 43 47 53 58 61 64 80 94 98 98 98 93 91 83 65 48 45 40 37 40 41 45 46
24 21 22 23 32 34 36 35 37 46 47 47 49 50 53 38 28 28 33 36 45 50 50 52 61 69 77 91 97 98 95 91 91 87 68 56 46 44 42 44 46 50 51
28 25 23 23 30 36 36 35 38 40 43 45 47 51 51 40 32 29 36 44 57 63 66 65 62 75 77 88 95 96 94 90 91 87 64 55 48 49 48 50 50 55 54
29 25 27 29 37 36 33 36 41 42 46 50 52 54 51 40 31 31 42 54 65 73 80 78 71 70 79 85 88 92 94 93 88 85 67 54 55 56 55 54 58 61 59
33 34 31 34 36 38 34 35 41 42 49 53 54 57 52 37 31 39 48 58 64 74 85 94 82 78 95 84 94 94 94 92 90 87 73 63 58 60 62 64 66 63 63

GFSSE_prec_cthk_096.txt.gz
RH
24 21 23 24 23 20 15 14 16 19 20 21 22 25 25 25 26 29 33 36 38 40 42 37 38 39 43 51 56 58 64 69 75 81 82 73 62 60 55 52 53 55 59
25 24 25 25 24 19 13 13 16 18 20 22 23 27 26 26 28 30 30 33 35 38 40 40 41 42 48 58 64 66 66 69 74 74 76 70 63 60 55 53 56 58 62
23 24 24 24 21 18 14 14 16 17 18 21 24 27 26 27 29 31 32 35 38 41 41 42 45 52 57 62 65 62 63 66 67 66 64 59 59 58 55 56 59 62 64
22 23 23 22 21 20 16 14 15 16 18 20 25 27 27 30 31 33 36 38 41 43 44 48 52 59 64 61 55 57 58 57 62 62 59 59 56 52 54 59 63 65 67
18 20 23 22 22 21 17 14 14 15 18 21 24 26 29 31 33 34 38 43 44 47 54 64 70 71 66 61 60 57 54 58 60 60 55 57 58 56 57 62 66 68 62
17 20 21 22 23 20 15 14 14 15 16 19 22 27 28 30 32 37 39 47 52 55 60 66 75 73 68 68 63 52 55 54 56 54 51 61 59 62 63 64 64 57 54
18 19 20 20 18 16 13 13 15 14 16 17 21 24 27 29 32 34 37 45 52 59 66 72 73 72 73 70 63 57 52 48 50 49 49 58 63 69 69 70 65 52 55
22 20 19 18 16 14 13 13 15 14 15 16 19 23 25 27 29 32 36 41 51 62 70 74 73 76 79 75 67 63 55 47 48 56 60 64 66 72 71 72 65 54 55
19 17 17 18 17 15 14 15 16 15 15 17 19 21 23 25 28 32 36 41 51 60 68 71 75 72 80 77 77 73 67 61 56 59 69 71 73 76 78 73 65 59 56
18 17 17 19 18 16 16 16 17 16 16 17 18 19 22 24 29 32 36 41 51 60 65 72 70 84 82 79 80 75 74 77 61 66 70 81 74 82 81 73 64 59 54
27 25 20 19 20 19 19 18 18 18 18 19 19 19 22 24 27 32 36 44 54 66 73 74 73 77 77 81 84 80 77 81 73 72 71 70 70 75 78 76 62 57 43
31 29 26 23 22 22 21 21 20 19 19 21 21 21 22 24 26 30 36 45 55 66 74 75 76 78 75 77 82 83 78 80 75 75 76 74 74 79 81 74 52 46 40
30 31 29 28 27 23 24 23 23 22 22 24 23 23 23 24 25 29 35 44 52 60 68 77 82 81 79 75 87 85 84 80 79 68 70 71 81 78 78 73 53 40 37
30 30 27 27 32 32 26 24 24 23 25 25 25 24 24 23 24 27 32 42 50 58 69 83 85 87 86 87 88 93 90 80 84 78 85 81 65 72 71 69 47 38 35
29 29 28 27 32 34 33 31 25 24 27 27 26 26 24 24 25 28 31 40 49 64 76 80 83 87 88 88 92 94 93 81 79 81 81 86 75 63 61 49 37 31 36
31 29 28 27 29 35 44 33 31 27 29 29 29 28 28 27 27 30 32 37 46 65 78 88 87 87 94 87 94 98 95 92 81 75 84 78 69 58 47 37 32 36 38
29 27 27 26 26 34 41 46 33 28 32 31 32 31 31 31 31 32 34 36 41 63 79 92 93 92 92 91 93 96 95 94 91 82 89 81 67 47 41 34 33 38 38
27 27 26 28 26 29 43 49 47 32 32 33 36 33 33 34 36 35 31 32 38 49 71 88 94 91 95 91 91 94 95 97 95 86 82 83 68 49 42 30 31 34 36
23 23 25 27 25 25 38 47 48 48 35 36 38 35 37 39 40 40 32 30 36 41 55 78 89 94 94 98 95 96 95 98 98 91 89 85 67 51 37 30 33 37 36
25 24 22 26 23 24 30 45 45 52 51 42 38 38 39 41 41 43 33 28 34 40 47 62 80 93 94 96 98 96 95 99 99 93 94 86 63 48 40 32 35 40 40
26 26 24 24 22 23 26 43 49 48 50 45 42 41 40 42 43 45 33 28 34 39 44 50 62 80 84 92 88 94 96 99 99 97 96 81 65 46 38 34 39 42 42
30 25 26 26 23 21 23 36 47 45 43 46 46 42 42 45 47 47 33 27 32 37 41 45 52 62 68 74 77 90 98 98 99 99 96 84 71 48 42 38 39 41 42
28 32 25 30 25 22 23 38 52 54 51 47 45 43 43 49 50 50 36 28 33 36 40 45 48 53 58 64 67 77 96 98 98 98 97 89 75 47 42 36 36 40 41
27 23 29 33 26 24 24 34 46 41 38 37 41 44 42 53 57 51 40 30 35 36 45 54 59 61 58 59 65 81 89 91 97 96 98 94 78 51 47 44 42 43 47
30 26 26 33 28 26 26 30 34 44 42 39 46 43 45 54 56 51 40 32 37 42 54 65 73 76 80 73 70 80 93 93 96 95 96 94 83 58 52 45 43 48 54
43 39 40 42 34 28 30 32 42 48 43 42 45 43 48 53 53 52 36 36 42 47 61 68 76 82 83 79 75 74 92 91 94 95 93 91 76 61 56 51 45 47 51

GFSSE_prec_cthk_102.txt.gz
RH
15 16 19 21 24 25 23 22 21 17 14 15 17 19 21 24 25 26 25 27 29 32 34 35 36 37 37 38 44 49 57 63 64 66 75 71 69 69 67 65 65 61 59
17 19 21 23 25 25 26 23 21 20 18 14 15 16 19 21 23 25 25 27 29 32 35 34 35 37 41 45 52 60 65 71 67 72 73 76 78 71 67 68 58 59 62
19 23 25 25 25 24 24 23 20 20 19 16 15 16 19 21 23 24 24 26 29 33 35 33 36 42 44 51 57 63 65 66 71 73 73 68 69 70 72 65 59 64 66
21 22 25 27 28 28 24 22 21 22 21 19 16 17 18 20 23 24 25 25 29 33 35 36 39 42 48 54 63 66 67 65 69 68 66 66 68 67 71 66 64 67 65
20 21 24 27 28 27 25 23 24 25 24 21 18 18 19 21 23 25 26 27 32 35 37 39 42 43 49 58 64 65 67 67 66 64 64 66 68 70 66 65 66 66 67
21 22 23 25 27 26 25 24 23 23 22 21 21 21 21 23 24 26 27 29 32 36 39 41 42 45 52 58 61 60 64 68 61 60 61 63 67 70 68 66 66 66 66
20 22 24 23 23 25 23 22 22 23 23 23 23 23 23 24 25 27 28 30 33 35 41 44 46 49 53 55 53 56 62 63 63 62 63 62 64 69 72 71 68 64 64
23 22 21 22 23 22 21 20 20 22 23 23 25 25 24 25 26 27 28 29 31 35 39 47 49 53 53 54 54 63 63 66 67 62 63 57 61 72 73 73 73 66 64
24 24 25 23 21 19 18 18 19 20 21 23 25 25 25 26 27 26 28 28 31 34 37 44 50 52 53 53 62 59 62 60 65 58 63 57 61 67 74 72 73 70 68
25 25 25 22 22 20 20 19 18 19 20 23 25 25 25 26 27 27 27 28 30 32 37 43 48 50 54 57 57 61 64 66 73 76 65 59 67 78 75 72 76 75 67
28 28 28 25 24 24 23 21 20 21 22 22 24 24 26 26 27 27 26 28 30 33 37 44 50 55 57 61 69 62 64 70 72 73 73 64 71 88 86 78 78 73 65
34 33 32 30 28 29 28 25 23 23 23 24 24 24 25 26 27 27 27 29 31 34 38 44 55 57 67 68 68 68 69 70 78 80 76 72 75 90 87 90 88 80 70
44 42 41 41 37 34 31 30 28 26 25 26 26 26 26 27 28 28 28 29 31 33 37 44 48 54 60 66 70 72 75 75 73 84 84 79 82 91 92 98 91 79 72
53 52 50 43 43 38 34 34 31 30 28 27 28 27 27 28 28 27 28 28 30 32 37 42 47 52 60 69 78 84 86 86 84 88 86 81 81 89 87 89 88 83 74
67 72 53 51 47 43 40 39 35 33 32 30 30 29 28 30 30 28 28 29 31 33 36 42 46 52 59 73 88 87 84 84 88 94 93 85 86 90 91 83 87 85 81
34 40 72 63 56 50 46 43 42 38 36 31 31 30 30 31 32 32 28 30 32 33 35 42 47 52 65 79 86 87 86 94 95 97 96 95 87 84 94 94 89 84 79
30 31 33 40 45 53 50 48 48 42 40 41 37 38 33 34 35 34 29 32 35 35 36 42 47 54 68 79 84 87 92 93 90 96 97 94 94 94 96 91 91 79 73
31 32 33 34 33 39 48 52 51 45 41 41 47 44 37 36 38 38 32 34 37 38 37 42 45 51 63 74 86 87 92 94 94 95 96 96 98 96 93 91 76 71 71
35 37 36 35 32 33 35 44 54 57 52 47 57 49 38 37 41 40 35 37 39 41 37 39 42 47 54 70 77 88 92 97 94 90 92 94 98 96 93 92 77 65 52
31 33 36 35 33 36 36 38 52 57 52 46 48 62 48 39 44 42 39 41 42 44 40 37 40 43 48 60 77 87 94 98 96 93 92 93 94 97 98 89 79 67 48
27 28 30 30 31 34 35 39 43 52 47 44 45 62 63 45 45 45 43 45 43 46 44 39 40 42 49 56 72 77 93 98 98 98 93 94 96 96 98 92 83 65 49
24 25 27 28 30 30 32 33 33 38 43 39 43 56 71 61 47 50 48 47 45 49 47 42 39 39 46 51 61 64 80 90 96 95 90 89 95 96 98 93 85 71 48
26 27 28 29 29 32 34 35 36 37 44 44 44 52 61 65 61 61 55 50 49 50 50 48 39 39 44 46 55 56 61 64 75 84 72 79 91 98 98 95 87 72 50
35 31 28 31 31 32 37 34 35 35 34 39 40 44 49 59 75 73 63 53 53 50 51 51 38 39 46 46 52 55 57 59 64 63 63 74 95 98 99 96 89 75 54
44 42 40 36 35 36 40 37 36 35 33 35 32 41 52 60 77 74 68 56 54 50 53 55 40 38 45 50 52 57 66 68 68 60 57 65 93 97 98 96 92 80 51
50 54 52 49 47 42 48 39 34 33 35 38 32 37 50 64 73 73 63 55 52 52 55 58 42 40 46 56 60 65 71 77 79 75 61 68 81 93 99 97 93 83 54